Regional Weather Roundup
Issued by NWS Midland/Odessa, TX

Home | Current Version | Previous Version | Text Only | Print | Product List | Glossary On
Versions: 1 2 3 4 5 6 7 8 9 10 11 12 13 14 15 16 17 18 19 20 21 22 23 24 25 26 27 28 29 30 31 32 33 34 35 36 37 38 39 40 41 42 43 44 45 46 47 48 49 50
000
ASUS44 KMAF 290310
RWRMAF
MIDLAND AREA WEATHER ROUNDUP
NATIONAL WEATHER SERVICE MIDLAND TX
1000 PM CDT FRI AUG 28 2015

...IN SOUTHWEST TEXAS AND SOUTHEAST NEW MEXICO...

CITY           SKY/WX    TMP DP  RH WIND       PRES   REMARKS
ALPINE         MOCLDY    78  55  44 N15G24    30.18R
ANDREWS        FAIR      74  61  62 W12       30.07R
ARTESIA        CLOUDY    81  59  47 E8G21     30.08R
BIG SPRING     CLOUDY    83  41  22 SE9       30.02R
CARLSBAD       CLOUDY    79  58  48 W8        30.04R
DRYDEN           N/A     87  48  25 VRB6      29.96R
FORT STOCKTON  MOCLDY    79  60  52 NE18      30.06R
GUAD PASS      LGT RAIN  65  60  84 SW18      30.24R
HOBBS          CLOUDY    73  59  60 E10       30.14R
MARFA          MOCLDY    75  54  46 N22G30    30.16R
MIDLAND AIRPK  CLOUDY    85  55  36 SW9       30.04R
MIDLAND INTL   CLOUDY    80  60  50 W17       30.03R
ODESSA         CLOUDY    81  55  40 W24G32    30.05R
PECOS          CLOUDY    77  61  56 NE15G24   30.02R
PRESIDIO       NOT AVBL
SEMINOLE       CLOUDY    74  62  65 W12       30.11R
SNYDER         CLOUDY    85  44  24 SE8       30.00R
WINK           LGT RAIN  72  66  81 NE12      30.05F
$$
...OTHER STATIONS IN TEXAS...

CITY           SKY/WX    TMP DP  RH WIND       PRES   REMARKS
ABILENE        MOCLDY    86  58  38 SE14      29.97R
AMARILLO       MOCLDY    77  62  59 SE12      30.12R
AUSTIN         PTCLDY    82  62  50 SE8       29.97R
BROWNSVILLE    CLEAR     78  67  68 E6        29.97R
CORPUS CHRISTI PTCLDY    77  63  61 SE7       29.98R
DALLAS FTW     MOCLDY    86  62  44 SE10      29.95R
DEL RIO        CLEAR     88  50  27 E10       29.91R
EL PASO        MOCLDY    78  57  48 SE12      30.09R
HOUSTON INT    CLEAR     81  69  67 S9        29.99R
LUBBOCK        TSTM      71  64  78 E20       30.09R
SAN ANGELO     PTCLDY    80  53  39 S6        29.96R
SAN ANTONIO    CLEAR     83  63  50 SE10      29.99R
WACO           CLEAR     84  63  49 S8        29.95R
WICHITA FALLS  NOT AVBL
$$
...OTHER LOCATIONS IN NEW MEXICO...

CITY           SKY/WX    TMP DP  RH WIND       PRES   REMARKS
ALAMAGORDO     CLOUDY    79  50  36 NE6       30.10S
ALBUQUERQUE    MOCLDY    76  48  37 E20       30.17R
CANNON AFB     CLOUDY    76  57  50 S5        30.14R
CLOVIS         CLOUDY    73  55  53 S6        30.15R
HOLLOMAN AFB   CLOUDY    78  55  45 E8        30.08R
ROSWELL        CLOUDY    81  56  42 N15       30.06R
RUIDOSO        CLOUDY    63  46  55 MISG      30.34F
SANTA FE       PTCLDY    70  42  36 S8        30.27R
TRUTH OR CONSE MOCLDY    81  51  35 VRB3      30.11R
TUCUMCARI      CLOUDY    76  59  55 N12       30.15R
$$



USA.gov is the U.S. government's official web portal to all federal, state and local government web resources and services.